Zurück zum Katalog

IUS R/B(1)

AktivGTO
NORAD 21806·ROCKET BODY·🇺🇸 United States

Gestartet Nov 24, 1991 von Cape Canaveral Space Force Station

Loading…

TLE

VeraltetSource: Space-Track

Epoche: Sep 14, 2026, 08:06 UTC

1 21806U 91080C   26257.33760175  .00000070  00000-0  79682-3 0  9991
2 21806  26.5125 172.0563 7114656 357.5345   0.3110  2.39038769 65201

Verfolge IUS R/B(1) in Echtzeit mit AllMySat

Download on the App Store